Weather History for Caribou, ME

Change the Weather History Date:

Sunday, February 3, 2013

  Actual Average Record
Temperature  
Mean Temperature 12 °F 11 °F  
Max Temperature 23 °F 21 °F 48 °F (1970)
Min Temperature 0 °F 1 °F -24 °F (1971)
Degree Days  
Heating Degree Days 53 54  
Month to date heating degree days 169 163  
Since 1 July heating degree days 4995 5457  
Cooling Degree Days 0 0  
Month to date cooling degree days 0 0  
Year to date cooling degree days 0 0  
Moisture  
Dew Point 4 °F    
Average Humidity 72    
Maximum Humidity 87    
Minimum Humidity 57    
Precipitation  
Precipitation T in 0.08 in 1.11 in (1968)
Month to date precipitation T 0.24  
Year to date precipitation 2.39 2.95  
Snow  
Snow T in 0.80 in 8.30 in (1969)
Month to date snowfall T 2.5  
Since 1 July snowfall 43.2 62.8  
Snow Depth 1.00 in    
Sea Level Pressure  
Sea Level Pressure 29.98 in    
Wind  
Wind Speed 7 mph (NNE)    
Max Wind Speed 14 mph    
Max Gust Speed 17 mph    
Visibility 10 miles    
Events Snow    
T = Trace of Precipitation, MM = Missing Value Source: NWS Daily Summary

Daily Weather History Graph

Daily Weather History Graph

Search for Another Location

Airport:

Trip Planner

Search our weather history database for the weather conditions in past years. The results will help you decide how hot, cold, wet, or windy it might be!

Date:

Astronomy

Feb. 03, 2013 Rise Set
Actual Time 6:53 AM EST 4:38 PM EST
Civil Twilight 6:21 AM EST 5:10 PM EST
Nautical Twilight 5:45 AM EST 5:47 PM EST
Astronomical Twilight 5:09 AM EST 6:22 PM EST
Moon 12:18 AM EST (2/3) 10:11 AM EST (2/3)
Length of Visible Light 10h 49m
Length of Day
9h 44m
Waning Gibbous, 49% of the Moon is Illuminated
Feb 3
Waning Gibbous
Feb 10
New
Feb 17
First Quarter
Feb 25
Full
Mar 4
Last Quarter

Hourly Weather History & Observations

Time (EST) Temp. Windchill Dew Point Humidity Pressure Visibility Wind Dir Wind Speed Gust Speed Precip Events Conditions
12:54 AM 5.0 °F -4.1 °F -0.0 °F 80% 30.11 in 10.0 mi NNE 4.6 mph - 0.00 in   Overcast
1:54 AM 5.0 °F -2.1 °F -0.0 °F 80% 30.11 in 10.0 mi NE 3.5 mph - 0.00 in   Mostly Cloudy
2:54 AM 5.0 °F -2.1 °F -0.0 °F 80% 30.11 in 10.0 mi NE 3.5 mph - N/A   Overcast
3:54 AM 5.0 °F -2.1 °F -0.0 °F 80% 30.12 in 10.0 mi North 3.5 mph - N/A   Overcast
4:54 AM 3.9 °F -5.3 °F -0.0 °F 84% 30.10 in 10.0 mi NNE 4.6 mph - N/A   Overcast
5:54 AM 1.9 °F -9.2 °F -2.0 °F 83% 30.11 in 10.0 mi NNE 5.8 mph - N/A   Clear
6:13 AM 1.4 °F -9.9 °F -2.2 °F 85% 30.05 in 10.0 mi NNE 5.8 mph - N/A   Mostly Cloudy
6:27 AM 1.4 °F -9.9 °F -2.2 °F 85% 30.05 in 10.0 mi NNE 5.8 mph - N/A   Scattered Clouds
7:54 AM 1.9 °F -10.6 °F -2.9 °F 80% 30.11 in 10.0 mi North 6.9 mph - N/A   Clear
8:54 AM 5.0 °F -5.6 °F -0.0 °F 80% 30.10 in 10.0 mi North 5.8 mph - N/A   Clear
9:54 AM 10.0 °F 0.4 °F 3.0 °F 73% 30.07 in 10.0 mi NNE 5.8 mph - N/A   Clear
10:54 AM 14.0 °F 5.1 °F 5.0 °F 67% 30.06 in 10.0 mi NE 5.8 mph - N/A   Mostly Cloudy
11:54 AM 18.0 °F 12.7 °F 7.0 °F 62% 30.01 in 10.0 mi NE 3.5 mph - N/A   Mostly Cloudy
12:04 PM 19.4 °F 11.5 °F 6.8 °F 58% 29.96 in 10.0 mi North 5.8 mph - N/A   Scattered Clouds
12:54 PM 19.9 °F 12.1 °F 8.1 °F 60% 29.98 in 10.0 mi ENE 5.8 mph - N/A   Scattered Clouds
1:54 PM 21.9 °F 17.2 °F 8.1 °F 55% 29.95 in 10.0 mi Variable 3.5 mph - N/A   Mostly Cloudy
2:54 PM 21.0 °F 13.4 °F 9.0 °F 60% 29.93 in 10.0 mi NNE 5.8 mph - N/A   Overcast
3:05 PM 21.2 °F 13.6 °F 8.6 °F 58% 29.88 in 10.0 mi NE 5.8 mph - N/A   Overcast
3:14 PM 21.2 °F 14.9 °F 8.6 °F 58% 29.88 in 10.0 mi NNE 4.6 mph - N/A   Overcast
3:54 PM 21.0 °F 11.4 °F 9.0 °F 60% 29.92 in 10.0 mi ENE 8.1 mph - N/A   Overcast
4:54 PM 19.9 °F 11.1 °F 9.0 °F 62% 29.91 in 10.0 mi ENE 6.9 mph - N/A   Overcast
5:54 PM 19.0 °F 8.2 °F 8.1 °F 62% 29.90 in 10.0 mi ENE 9.2 mph - N/A   Overcast
6:54 PM 16.0 °F 5.3 °F 7.0 °F 68% 29.87 in 10.0 mi NE 8.1 mph - N/A   Mostly Cloudy
7:54 PM 15.1 °F 5.2 °F 7.0 °F 70% 29.86 in 10.0 mi NNE 6.9 mph - N/A   Mostly Cloudy
8:04 PM 14.0 °F 3.9 °F 6.8 °F 73% 29.80 in 10.0 mi NNE 6.9 mph - N/A   Scattered Clouds
8:54 PM 14.0 °F 2.0 °F 6.1 °F 71% 29.83 in 10.0 mi NNE 9.2 mph - N/A   Overcast
9:54 PM 10.9 °F -4.1 °F 5.0 °F 77% 29.79 in 8.0 mi North 12.7 mph - N/A   Overcast
11:54 PM 10.9 °F -4.1 °F 6.1 °F 81% 29.71 in 5.0 mi North 12.7 mph - 0.00 in Snow Light Snow